Weather History for Corinth, MS

Change the Weather History Date:

Tuesday, March 12, 2013

  Actual Average Record
Temperature  
Mean Temperature 42 °F -  
Max Temperature 55 °F 64 °F 82 °F (1989)
Min Temperature 28 °F 42 °F 23 °F (1948)
Degree Days  
Heating Degree Days 24    
Moisture  
Dew Point 29 °F    
Average Humidity 67    
Maximum Humidity 100    
Minimum Humidity 30    
Precipitation  
Precipitation 0.00 in - - ()
Sea Level Pressure  
Sea Level Pressure 30.12 in    
Wind  
Wind Speed 4 mph (NW)    
Max Wind Speed 14 mph    
Max Gust Speed 20 mph    
Visibility 10 miles    
Events      
Averages and records for this station are not official NWS values.
T = Trace of Precipitation, MM = Missing Value Source: NWS Daily Summary

Daily Weather History Graph

Daily Weather History Graph

Search for Another Location

Airport:

Trip Planner

Search our weather history database for the weather conditions in past years. The results will help you decide how hot, cold, wet, or windy it might be!

Date:

Astronomy

Mar. 12, 2013 Rise Set
Actual Time 7:08 AM CDT 6:59 PM CDT
Civil Twilight 6:43 AM CDT 7:25 PM CDT
Nautical Twilight 6:14 AM CDT 7:54 PM CDT
Astronomical Twilight 5:44 AM CDT 8:23 PM CDT
Moon 7:18 AM CDT (3/12) 8:09 PM CDT (3/12)
Length of Visible Light 12h 41m
Length of Day
11h 51m
New Moon, 1% of the Moon is Illuminated
Mar 12
New Moon
Mar 19
First Quarter
Mar 27
Full
Apr 2
Last Quarter
Apr 10
New

Hourly Weather History & Observations

Time (CDT) Temp. Windchill Dew Point Humidity Pressure Visibility Wind Dir Wind Speed Gust Speed Precip Events Conditions
12:15 AM 33.8 °F 30.8 °F 32.0 °F 93% 30.04 in 10.0 mi West 3.5 mph - N/A   Clear
12:35 AM 33.8 °F - 32.0 °F 93% 30.03 in 10.0 mi Calm Calm - N/A   Clear
12:55 AM 32.0 °F - 32.0 °F 100% 30.03 in 10.0 mi Calm Calm - N/A   Clear
1:15 AM 32.0 °F 28.7 °F 32.0 °F 100% 30.03 in 10.0 mi West 3.5 mph - N/A   Clear
1:35 AM 32.0 °F 28.7 °F 32.0 °F 100% 30.04 in 10.0 mi WNW 3.5 mph - N/A   Clear
1:55 AM 32.0 °F 28.7 °F 30.2 °F 93% 30.04 in 10.0 mi WNW 3.5 mph - N/A   Clear
2:15 AM 32.0 °F 28.7 °F 32.0 °F 100% 30.04 in 10.0 mi West 3.5 mph - N/A   Clear
2:35 AM 32.0 °F 27.5 °F 30.2 °F 93% 30.05 in 10.0 mi West 4.6 mph - N/A   Clear
2:55 AM 32.0 °F - 30.2 °F 93% 30.04 in 9.0 mi Calm Calm - N/A   Clear
3:15 AM 32.0 °F - 28.4 °F 87% 30.04 in 8.0 mi Calm Calm - N/A   Clear
3:35 AM 32.0 °F - 28.4 °F 87% 30.04 in 7.0 mi Calm Calm - N/A   Clear
4:15 AM 32.0 °F - 28.4 °F 87% 30.04 in 10.0 mi Calm Calm - N/A   Clear
4:35 AM 30.2 °F - 28.4 °F 93% 30.04 in 8.0 mi Calm Calm - N/A   Clear
4:55 AM 30.2 °F - 28.4 °F 93% 30.04 in 8.0 mi Calm Calm - N/A   Clear
5:15 AM 30.2 °F 26.7 °F 28.4 °F 93% 30.05 in 10.0 mi West 3.5 mph - N/A   Clear
5:35 AM 30.2 °F - 28.4 °F 93% 30.06 in 10.0 mi Calm Calm - N/A   Clear
5:55 AM 30.2 °F - 28.4 °F 93% 30.06 in 10.0 mi Calm Calm - N/A   Clear
6:15 AM 28.4 °F - 28.4 °F 100% 30.08 in 10.0 mi Calm Calm - N/A   Partly Cloudy
6:35 AM 30.2 °F 26.7 °F 28.4 °F 93% 30.09 in 10.0 mi West 3.5 mph - N/A   Partly Cloudy
6:55 AM 28.4 °F - 28.4 °F 100% 30.09 in 10.0 mi Calm Calm - N/A   Clear
7:15 AM 28.4 °F - 26.6 °F 93% 30.09 in 8.0 mi Calm Calm - N/A   Partly Cloudy
7:35 AM 28.4 °F - 26.6 °F 93% 30.08 in 8.0 mi Calm Calm - N/A   Clear
7:55 AM 30.2 °F - 28.4 °F 93% 30.09 in 8.0 mi Calm Calm - N/A   Clear
8:15 AM 32.0 °F 28.7 °F 30.2 °F 93% 30.11 in 8.0 mi WNW 3.5 mph - N/A   Clear
8:35 AM 32.0 °F - 32.0 °F 100% 30.13 in 10.0 mi Calm Calm - N/A   Clear
8:55 AM 35.6 °F 31.7 °F 32.0 °F 87% 30.14 in 10.0 mi WNW 4.6 mph - N/A   Clear
9:15 AM 37.4 °F 32.8 °F 32.0 °F 81% 30.15 in 10.0 mi NNW 5.8 mph - N/A   Clear
9:35 AM 39.2 °F 35.9 °F 32.0 °F 75% 30.15 in 10.0 mi NW 4.6 mph - N/A   Clear
9:55 AM 41.0 °F 35.2 °F 32.0 °F 70% 30.17 in 10.0 mi WNW 9.2 mph - N/A   Clear
10:15 AM 42.8 °F 36.2 °F 30.2 °F 61% 30.18 in 10.0 mi NNW 12.7 mph - N/A   Clear
10:35 AM 42.8 °F 37.5 °F 30.2 °F 61% 30.18 in 10.0 mi NNW 9.2 mph - N/A   Clear
10:55 AM 44.6 °F 40.7 °F 28.4 °F 53% 30.17 in 10.0 mi North 6.9 mph - N/A   Clear
11:15 AM 44.6 °F 40.2 °F 28.4 °F 53% 30.18 in 10.0 mi NNW 8.1 mph - N/A   Clear
11:35 AM 46.4 °F 42.4 °F 26.6 °F 46% 30.18 in 10.0 mi NNW 8.1 mph - N/A   Clear
11:55 AM 46.4 °F 42.4 °F 28.4 °F 50% 30.18 in 10.0 mi North 8.1 mph - N/A   Clear
12:15 PM 48.2 °F - 28.4 °F 46% 30.17 in 10.0 mi WNW 6.9 mph - N/A   Clear
12:35 PM 48.2 °F - 24.8 °F 40% 30.17 in 10.0 mi NW 5.8 mph - N/A   Clear
12:55 PM 50.0 °F - 19.4 °F 30% 30.17 in 10.0 mi NNW 9.2 mph - N/A   Clear
1:15 PM 50.0 °F - 21.2 °F 32% 30.17 in 10.0 mi North 11.5 mph 19.6 mph N/A   Clear
1:35 PM 51.8 °F - 23.0 °F 33% 30.16 in 10.0 mi NNW 10.4 mph 18.4 mph N/A   Clear
1:55 PM 53.6 °F - 24.8 °F 33% 30.15 in 10.0 mi NNW 13.8 mph - N/A   Clear
2:15 PM 53.6 °F - 24.8 °F 33% 30.15 in 10.0 mi NNW 11.5 mph 17.3 mph N/A   Clear
2:35 PM 53.6 °F - 26.6 °F 35% 30.14 in 10.0 mi North 9.2 mph - N/A   Clear
2:55 PM 53.6 °F - 26.6 °F 35% 30.13 in 10.0 mi NW 12.7 mph - N/A   Clear
3:15 PM 55.4 °F - 24.8 °F 31% 30.13 in 10.0 mi NNW 10.4 mph - N/A   Clear
3:35 PM 55.4 °F - 26.6 °F 33% 30.12 in 10.0 mi NNW 5.8 mph - N/A   Clear
3:55 PM 55.4 °F - 26.6 °F 33% 30.12 in 10.0 mi NW 11.5 mph - N/A   Clear
4:15 PM 55.4 °F - 26.6 °F 33% 30.12 in 10.0 mi NNW 9.2 mph - N/A   Clear
4:35 PM 55.4 °F - 26.6 °F 33% 30.12 in 10.0 mi NNW 9.2 mph - N/A   Clear
4:55 PM 55.4 °F - 26.6 °F 33% 30.12 in 10.0 mi NW 13.8 mph - N/A   Clear
5:15 PM 55.4 °F - 26.6 °F 33% 30.12 in 10.0 mi WNW 11.5 mph 16.1 mph N/A   Clear
5:35 PM 55.4 °F - 26.6 °F 33% 30.12 in 10.0 mi NNW 6.9 mph - N/A   Clear
5:55 PM 53.6 °F - 24.8 °F 33% 30.13 in 10.0 mi NW 9.2 mph - N/A   Clear
6:15 PM 53.6 °F - 26.6 °F 35% 30.13 in 10.0 mi NNW 5.8 mph - N/A   Clear
6:35 PM 51.8 °F - 24.8 °F 35% 30.13 in 10.0 mi NW 6.9 mph - N/A   Clear
6:55 PM 50.0 °F - 24.8 °F 37% 30.14 in 10.0 mi NNW 4.6 mph - N/A   Clear
7:15 PM 50.0 °F - 28.4 °F 43% 30.14 in 10.0 mi NNW 3.5 mph - N/A   Clear
7:35 PM 48.2 °F - 26.6 °F 43% 30.14 in 10.0 mi WNW 4.6 mph - N/A   Clear
7:55 PM 46.4 °F 44.3 °F 28.4 °F 50% 30.15 in 10.0 mi West 4.6 mph - N/A   Clear
8:15 PM 42.8 °F 40.1 °F 32.0 °F 66% 30.16 in 10.0 mi West 4.6 mph - N/A   Clear
8:35 PM 44.6 °F - 28.4 °F 53% 30.16 in 10.0 mi Calm Calm - N/A   Clear
8:55 PM 44.6 °F - 28.4 °F 53% 30.17 in 10.0 mi Calm Calm - N/A   Clear
9:15 PM 42.8 °F - 28.4 °F 57% 30.17 in 10.0 mi Calm Calm - N/A   Clear
9:35 PM 39.2 °F - 30.2 °F 70% 30.18 in 10.0 mi Calm Calm - N/A   Clear
9:55 PM 39.2 °F - 33.8 °F 81% 30.18 in 10.0 mi Calm Calm - N/A   Clear
10:15 PM 37.4 °F - 33.8 °F 87% 30.19 in 10.0 mi Calm Calm - N/A   Clear
10:35 PM 37.4 °F - 32.0 °F 81% 30.19 in 10.0 mi Calm Calm - N/A   Clear
10:55 PM 37.4 °F - 30.2 °F 75% 30.18 in 10.0 mi Calm Calm - N/A   Partly Cloudy
11:15 PM 37.4 °F - 32.0 °F 81% 30.18 in 10.0 mi Calm Calm - N/A   Mostly Cloudy
11:35 PM 35.6 °F - 32.0 °F 87% 30.18 in 10.0 mi Calm Calm - N/A   Scattered Clouds
11:55 PM 35.6 °F - 32.0 °F 87% 30.19 in 10.0 mi Calm Calm - N/A   Mostly Cloudy